Change the Weather History Date:

Sunday, February 2, 2014

  Actual Average (KNYG) Record (KNYG)
Temperature  
Mean Temperature 50 °F -  
Max Temperature 67 °F 42 °F 64 °F (2006)
Min Temperature 33 °F 27 °F 15 °F (2004)
Degree Days  
Heating Degree Days 15    
Moisture  
Dew Point 33 °F    
Average Humidity 57    
Maximum Humidity 80    
Minimum Humidity 36    
Precipitation  
Precipitation 0.00 in - - ()
Sea Level Pressure  
Sea Level Pressure 30.02 in    
Wind  
Wind Speed 1 mph (ENE)    
Max Wind Speed 8 mph    
Max Gust Speed -    
Visibility 10 miles    
Events      
Averages and records for this station are not official NWS values.
T = Trace of Precipitation, MM = Missing Value Source: NWS Daily Summary

Daily Weather History Graph

Daily Weather History Graph

Search for Another Location

Airport or City:

Trip Planner

Search our weather history database for the weather conditions in past years. The results will help you decide how hot, cold, wet, or windy it might be!

Date:

Astronomy

Feb. 02, 2014 Rise Set
Actual Time 7:14 AM EST 5:33 PM EST
Civil Twilight 6:46 AM EST 6:01 PM EST
Nautical Twilight 6:14 AM EST 6:32 PM EST
Astronomical Twilight 5:43 AM EST 7:03 PM EST
Moon 8:42 AM EST (2/2) 9:11 PM EST (2/2)
Length of Visible Light 11h 14m
Length of Day
10h 19m
Waxing Crescent, 11% of the Moon is Illuminated
Feb 2
Waxing Crescent
Feb 6
First Quarter
Feb 14
Full
Feb 22
Last Quarter
Mar 1
New

Hourly Weather History & Observations

Time (EST) Temp. Windchill Dew Point Humidity Pressure Visibility Wind Dir Wind Speed Gust Speed Precip Events Conditions
12:15 AM 35.4 °F - 29.1 °F 78% 30.05 in 10.0 mi Calm Calm - N/A   Clear
12:35 AM 35.6 °F - 28.6 °F 76% 30.04 in 10.0 mi Calm Calm - N/A   Clear
12:55 AM 35.4 °F - 28.2 °F 75% 30.04 in 10.0 mi Calm Calm - N/A   Clear
1:15 AM 35.6 °F - 27.5 °F 72% 30.03 in 10.0 mi Calm Calm - N/A   Clear
1:35 AM 34.5 °F - 27.7 °F 76% 30.02 in 10.0 mi Calm Calm - N/A   Clear
1:55 AM 35.1 °F - 27.9 °F 75% 30.01 in 10.0 mi Calm Calm - N/A   Clear
2:15 AM 33.6 °F - 28.0 °F 80% 30.01 in 10.0 mi Calm Calm - N/A   Clear
2:35 AM 33.1 °F - 27.5 °F 80% 30.01 in 10.0 mi Calm Calm - N/A   Clear
2:55 AM 34.5 °F - 27.1 °F 74% 30.01 in 10.0 mi Calm Calm - N/A   Clear
3:15 AM 33.8 °F - 26.6 °F 75% 30.00 in 10.0 mi Calm Calm - N/A   Clear
3:35 AM 33.4 °F - 26.4 °F 75% 30.00 in 10.0 mi Calm Calm - N/A   Clear
3:55 AM 33.8 °F - 26.1 °F 73% 29.99 in 10.0 mi Calm Calm - N/A   Clear
4:15 AM 34.7 °F - 26.1 °F 71% 29.99 in 10.0 mi Calm Calm - N/A   Clear
4:35 AM 35.4 °F - 26.6 °F 70% 29.99 in 10.0 mi Calm Calm - N/A   Clear
4:55 AM 42.3 °F - 26.2 °F 53% 29.99 in 10.0 mi Calm Calm - N/A   Clear
5:15 AM 43.9 °F 42.3 °F 26.4 °F 50% 29.99 in 10.0 mi WSW 3.5 mph - N/A   Clear
5:35 AM 45.0 °F - 27.0 °F 49% 29.99 in 10.0 mi Calm Calm - N/A   Clear
5:55 AM 43.9 °F 42.3 °F 27.1 °F 52% 29.99 in 10.0 mi South 3.5 mph - N/A   Clear
6:15 AM 43.2 °F 41.5 °F 27.5 °F 54% 29.99 in 10.0 mi South 3.5 mph - N/A   Clear
6:35 AM 42.3 °F - 27.5 °F 56% 30.00 in 10.0 mi Calm Calm - N/A   Clear
6:55 AM 40.6 °F - 27.9 °F 60% 30.00 in 10.0 mi Calm Calm - N/A   Clear
7:15 AM 38.3 °F - 27.9 °F 66% 30.00 in 10.0 mi Calm Calm - N/A   Clear
7:35 AM 37.0 °F - 28.2 °F 70% 30.01 in 10.0 mi Calm Calm - N/A   Clear
7:55 AM 35.8 °F - 28.4 °F 75% 30.02 in 10.0 mi Calm Calm - N/A   Clear
8:15 AM 39.7 °F - 30.0 °F 68% 30.03 in 10.0 mi Calm Calm - N/A   Clear
8:35 AM 43.3 °F - 31.6 °F 63% 30.03 in 10.0 mi Calm Calm - N/A   Clear
8:55 AM 45.3 °F - 30.9 °F 57% 30.04 in 10.0 mi Calm Calm - N/A   Clear
9:15 AM 48.6 °F - 31.5 °F 52% 30.03 in 10.0 mi SW 4.6 mph - N/A   Clear
9:35 AM 49.3 °F - 31.1 °F 50% 30.03 in 10.0 mi SSW 4.6 mph - N/A   Clear
9:55 AM 51.1 °F - 31.8 °F 48% 30.05 in 10.0 mi West 3.5 mph - N/A   Clear
10:15 AM 52.5 °F - 32.0 °F 46% 30.05 in 10.0 mi West 4.6 mph - N/A   Clear
10:35 AM 54.3 °F - 32.0 °F 43% 30.05 in 10.0 mi Calm Calm - N/A   Clear
10:55 AM 55.9 °F - 32.4 °F 41% 30.05 in 10.0 mi Calm Calm - N/A   Clear
11:15 AM 57.4 °F - 33.4 °F 40% 30.05 in 10.0 mi Calm Calm - N/A   Clear
11:35 AM 59.0 °F - 33.4 °F 38% 30.03 in 10.0 mi Calm Calm - N/A   Clear
11:55 AM 61.7 °F - 35.1 °F 37% 30.03 in 10.0 mi Calm Calm - N/A   Clear
12:15 PM 63.0 °F - 35.8 °F 36% 30.02 in 10.0 mi SSE 3.5 mph - N/A   Clear
12:35 PM 63.5 °F - 36.7 °F 37% 30.01 in 10.0 mi South 3.5 mph - N/A   Scattered Clouds
12:55 PM 64.6 °F - 37.0 °F 36% 30.00 in 10.0 mi Calm Calm - N/A   Scattered Clouds
1:15 PM 66.4 °F - 39.0 °F 37% 29.99 in 10.0 mi Calm Calm - N/A   Mostly Cloudy
1:35 PM 67.8 °F - 40.5 °F 37% 29.99 in 10.0 mi SW 4.6 mph - N/A   Mostly Cloudy
1:55 PM 67.1 °F - 40.3 °F 38% 29.98 in 10.0 mi South 3.5 mph - N/A   Overcast
2:15 PM 67.1 °F - 40.3 °F 38% 29.97 in 10.0 mi Calm Calm - N/A   Overcast
2:35 PM 66.4 °F - 38.3 °F 36% 29.97 in 10.0 mi East 6.9 mph - N/A   Mostly Cloudy
2:55 PM 63.7 °F - 37.6 °F 38% 29.97 in 10.0 mi East 8.1 mph - N/A   Overcast
3:15 PM 63.5 °F - 38.1 °F 39% 29.96 in 10.0 mi East 6.9 mph - N/A   Mostly Cloudy
3:35 PM 64.6 °F - 38.3 °F 38% 29.96 in 10.0 mi ESE 4.6 mph - N/A   Scattered Clouds
3:55 PM 64.2 °F - 38.8 °F 39% 29.96 in 10.0 mi ESE 3.5 mph - N/A   Clear
4:15 PM 64.6 °F - 40.3 °F 41% 29.96 in 10.0 mi Calm Calm - N/A   Clear
4:35 PM 63.9 °F - 39.9 °F 41% 29.97 in 10.0 mi Calm Calm - N/A   Clear
4:55 PM 63.5 °F - 40.6 °F 43% 29.98 in 10.0 mi Calm Calm - N/A   Clear
5:15 PM 60.8 °F - 39.4 °F 45% 29.99 in 10.0 mi Calm Calm - N/A   Clear
5:35 PM 56.8 °F - 38.7 °F 51% 30.00 in 10.0 mi Calm Calm - N/A   Clear
5:55 PM 55.6 °F - 38.3 °F 52% 30.01 in 10.0 mi NE 4.6 mph - N/A   Clear
6:15 PM 55.0 °F - 38.3 °F 53% 30.01 in 10.0 mi ENE 6.9 mph - N/A   Clear
6:35 PM 53.6 °F - 37.9 °F 55% 30.01 in 10.0 mi Calm Calm - N/A   Clear
6:55 PM 52.9 °F - 37.9 °F 57% 30.01 in 10.0 mi Calm Calm - N/A   Clear
7:15 PM 52.7 °F - 37.8 °F 57% 30.02 in 10.0 mi Calm Calm - N/A   Clear
7:35 PM 49.8 °F - 37.8 °F 63% 30.03 in 10.0 mi Calm Calm - N/A   Clear
7:55 PM 48.7 °F - 37.6 °F 65% 30.03 in 10.0 mi Calm Calm - N/A   Clear
8:15 PM 46.4 °F - 37.0 °F 70% 30.03 in 10.0 mi Calm Calm - N/A   Scattered Clouds
8:35 PM 45.5 °F - 37.2 °F 73% 30.04 in 10.0 mi Calm Calm - N/A   Overcast
8:55 PM 46.6 °F - 37.8 °F 71% 30.05 in 10.0 mi Calm Calm - N/A   Overcast
9:15 PM 48.9 °F - 38.3 °F 67% 30.04 in 10.0 mi NNE 3.5 mph - N/A   Mostly Cloudy
9:35 PM 46.0 °F 43.9 °F 37.4 °F 72% 30.06 in 10.0 mi NW 4.6 mph - N/A   Scattered Clouds
9:55 PM 45.1 °F 42.8 °F 37.8 °F 75% 30.06 in 10.0 mi North 4.6 mph - N/A   Scattered Clouds
10:15 PM 50.9 °F - 36.7 °F 58% 30.05 in 10.0 mi North 4.6 mph - N/A   Mostly Cloudy
10:35 PM 47.5 °F - 36.1 °F 65% 30.07 in 10.0 mi North 4.6 mph - N/A   Mostly Cloudy
10:55 PM 51.1 °F - 35.8 °F 56% 30.08 in 10.0 mi North 6.9 mph - N/A   Overcast
11:15 PM 50.5 °F - 35.8 °F 57% 30.08 in 10.0 mi NNE 8.1 mph - N/A   Overcast
11:35 PM 50.5 °F - 36.0 °F 57% 30.08 in 10.0 mi North 3.5 mph - N/A   Overcast
11:55 PM 49.3 °F - 36.9 °F 62% 30.08 in 10.0 mi NNW 6.9 mph - N/A   Overcast